User: anonymous   Login
Location: Unspecified
(0.0000°N, 0.0000°E)
Time: 01:41:52
(UTC+00:00)
Language:

USA 264 DEB - Orbit

View from above orbital plane
View from above orbital plane
View from above satellite
View from above satellite

Ground track
Ground track

The orbit data is extracted from the following two-line orbital elements,

1 40981U 15058R   17097.79987203 0.00000000  00000-0  00000-0 0    03
2 40981  63.4387 340.0980 0082000 176.5303 183.4697 13.40729605    09
Epoch (UTC): 07 April 2017 19:11:48
Eccentricity: 0.0082000
inclination: 63.4387°
perigee height: 1045 km
apogee height: 1168 km
right ascension of ascending node: 340.0980°
argument of perigee: 176.5303°
revolutions per day: 13.40729605
mean anomaly at epoch: 183.4697°
orbit number at epoch: 0

The dashed part of the orbit path shows where the satellite is in the earth's shadow,  

DLR